Tabas Airport

Airport
ICAO code: 
OIMT
IATA Code: 
TCX
Summary
ICAO Region: 
APAC
Territory: 
Location: 
Tabas, South Khorasan
Serving: 
Tabas
Elevation: 
2312 ft
Coordinates: 
Aerial View: 
33° 40' 9.316" N, 56° 53' 49.416" E
Metar
Observation
OIMT 050800Z 23002KT CAVOK 14/00 Q1022
Station
Tabas
Date/Time
2021-12-05 08:00:00
Wind direction
230°
Wind speed
02 kts
Lowest cloud amount
clouds and visibility OK
Temperature
14°C
Dew point
0°C
Humidity
38%
QNH
1022 hPa
Weather condition
n/a

Airport serving Tabas a city in the South Khorasan Province of central Iran.

Climatology

Cold semi-arid climate (Köppen climate classification BSk)

Runways

Designator Length Width Surface Rops
15/33 3041 45 ASP No/No
Airport map: 
Aerial View: 

SKYbrary Partners:

Safety knowledge contributed by: